GW6106 Weather Reports


time (UTC)temp
C
wind
direction
speed
KPH
gust
KPH
rain 1hr
cm
rain 24hr
cm
rain mn
cm
humidity
%
barometer
mb
20260505121849 18 201 6.4 11.3 0.00 0.00 0.03 63 1003.0
20260505121349 18 214 6.4 8.0 0.00 0.00 0.03 63 1003.0
20260505120849 18 209 6.4 8.0 0.00 0.00 0.03 63 1003.0
20260505120350 18 214 8.0 12.9 0.00 0.00 0.03 63 1003.0
20260505115849 18 195 6.4 9.7 0.00 0.00 0.03 63 1003.0
20260505115349 17 187 6.4 8.0 0.00 0.00 0.03 65 1003.0
20260505114849 17 195 8.0 14.5 0.00 0.00 0.03 66 1003.0
20260505114349 17 203 6.4 14.5 0.00 0.00 0.03 66 1003.0
20260505113850 17 177 8.0 9.7 0.00 0.00 0.03 66 1003.0
20260505113349 17 169 6.4 9.7 0.00 0.00 0.03 67 1003.0
20260505112849 17 186 6.4 9.7 0.00 0.00 0.03 66 1003.0
20260505112349 17 191 4.8 6.4 0.00 0.00 0.03 66 1002.0
20260505111849 17 188 6.4 8.0 0.00 0.00 0.03 66 1002.0
20260505111350 17 188 6.4 9.7 0.00 0.00 0.03 65 1002.0
20260505110849 17 183 9.7 16.1 0.00 0.00 0.03 65 1002.0
20260505110349 17 183 6.4 11.3 0.00 0.00 0.03 65 1002.0
20260505101849 16 195 6.4 11.3 0.00 0.00 0.03 67 1002.0
20260505101349 16 171 8.0 9.7 0.00 0.00 0.03 68 1002.0
20260505100849 16 185 6.4 12.9 0.00 0.00 0.03 70 1002.0
20260505100349 16 156 6.4 11.3 0.00 0.00 0.03 71 1002.0
20260505095849 16 162 6.4 8.0 0.00 0.00 0.03 73 1002.0
20260505095350 16 154 6.4 11.3 0.00 0.00 0.03 73 1002.0
20260505094849 16 167 4.8 6.4 0.00 0.00 0.03 73 1002.0
20260505094349 16 192 4.8 8.0 0.25 0.00 0.03 69 1002.0
20260505093850 16 201 4.8 8.0 0.00 0.00 0.00 68 1002.0
20260505093349 16 201 4.8 9.7 0.00 0.00 0.00 67 1002.0
20260505092849 16 199 6.4 9.7 0.00 0.00 0.00 67 1002.0
20260505092349 17 183 3.2 6.4 0.00 0.00 0.00 67 1002.0
20260505091850 17 203 6.4 14.5 0.00 0.00 0.00 67 1002.0
20260505091349 16 199 6.4 9.7 0.00 0.00 0.00 67 1002.0
20260505090853 17 170 4.8 6.4 0.03 0.00 0.00 66 1002.0
20260505090349 17 190 6.4 11.3 0.00 0.00 0.00 66 1002.0
20260505085850 17 193 4.8 9.7 0.00 0.00 0.00 67 1002.0
20260505085349 17 190 6.4 8.0 0.13 0.00 0.00 64 1002.0
20260505084849 17 159 4.8 8.0 0.00 0.00 0.00 64 1002.0
20260505084350 17 211 4.8 6.4 0.00 0.00 0.00 63 1002.0
20260505083849 17 192 9.7 12.9 0.00 0.00 0.00 62 1002.0
20260505083350 17 189 4.8 6.4 0.00 0.00 0.00 62 1002.0
20260505082849 17 193 4.8 9.7 0.00 0.00 0.00 61 1003.0
20260505082349 17 210 6.4 9.7 0.00 0.00 0.00 61 1003.0
20260505081849 17 195 4.8 8.0 0.00 0.00 0.00 61 1003.0
20260505081349 17 200 6.4 9.7 0.00 0.00 0.00 61 1003.0
20260505080849 17 183 4.8 8.0 0.00 0.00 0.00 60 1003.0
20260505080349 17 199 6.4 8.0 0.00 0.00 0.00 59 1003.0
20260505075850 17 191 6.4 9.7 0.00 0.00 0.00 59 1003.0
20260505075349 17 183 4.8 6.4 0.00 0.00 0.00 59 1003.0
20260505074850 17 206 4.8 9.7 0.00 0.00 0.00 58 1003.0
20260505074349 17 184 4.8 9.7 0.00 0.00 0.00 58 1003.0
20260505073849 17 194 4.8 8.0 0.00 0.00 0.00 57 1003.0
20260505073349 17 190 6.4 12.9 0.00 0.00 0.00 57 1003.0
20260505072850 17 198 6.4 9.7 0.00 0.00 0.00 57 1003.0
20260505072349 17 182 6.4 14.5 0.00 0.00 0.00 57 1003.0
20260505071849 17 184 8.0 11.3 0.00 0.00 0.00 57 1003.0
20260505071350 17 189 3.2 4.8 0.00 0.00 0.00 57 1003.0
20260505070850 17 194 6.4 8.0 0.00 0.00 0.00 56 1003.0
20260505070350 17 175 6.4 9.7 0.00 0.00 0.00 55 1002.0
20260505065850 17 175 6.4 8.0 0.00 0.00 0.00 55 1002.0
20260505065349 17 171 8.0 14.5 0.00 0.00 0.00 55 1002.0
20260505064849 17 188 8.0 12.9 0.00 0.00 0.00 54 1002.0
20260505064349 17 197 9.7 14.5 0.00 0.00 0.00 54 1002.0
20260505063849 17 188 8.0 17.7 0.00 0.00 0.00 54 1002.0
20260505063349 17 191 6.4 8.0 0.00 0.00 0.00 52 1002.0
20260505062849 17 196 6.4 11.3 0.00 0.00 0.00 53 1002.0
20260505062350 17 205 4.8 8.0 0.00 0.00 0.00 53 1002.0
20260505061849 17 193 6.4 9.7 0.00 0.00 0.00 53 1002.0
20260505061349 17 176 4.8 6.4 0.00 0.00 0.00 54 1002.0
20260505060849 17 170 4.8 8.0 0.00 0.00 0.00 53 1002.0
20260505060349 17 182 4.8 8.0 0.00 0.00 0.00 53 1002.0
20260505055851 17 179 4.8 6.4 0.00 0.00 0.00 53 1002.0
20260505055349 17 192 6.4 9.7 0.00 0.00 0.00 51 1002.0
20260505054849 17 174 8.0 11.3 0.00 0.00 0.00 51 1003.0
20260505054349 17 192 4.8 8.0 0.00 0.00 0.00 52 1003.0
20260505053855 17 209 4.8 6.4 0.00 0.00 0.00 51 1003.0
20260505053349 17 205 6.4 9.7 0.00 0.00 0.00 51 1003.0
20260505052849 17 226 9.7 12.9 0.00 0.00 0.00 51 1003.0
20260505052350 17 188 6.4 9.7 0.00 0.00 0.00 51 1003.0
20260505051849 17 191 6.4 11.3 0.00 0.00 0.00 50 1003.0
20260505051350 17 206 3.2 8.0 0.00 0.00 0.00 51 1003.0
20260505050849 17 204 3.2 4.8 0.00 0.00 0.00 50 1003.0
20260505050349 17 179 3.2 6.4 0.00 0.00 0.00 50 1003.0
20260505041350 15 179 4.8 6.4 0.00 0.00 0.00 53 1003.0
20260505040849 15 164 6.4 8.0 0.00 0.00 0.00 54 1003.0
20260505040350 14 160 4.8 8.0 0.00 0.00 0.00 57 1003.0
20260505035850 13 156 4.8 8.0 0.00 0.00 0.13 58 1003.0
20260505035351 13 165 0.0 3.2 0.00 0.00 0.13 59 1003.0
20260505034849 13 0 0.0 0.0 0.00 0.00 0.13 61 1003.0
20260505034350 13 149 1.6 3.2 0.00 0.00 0.13 61 1003.0
20260505033850 12 151 1.6 4.8 0.00 0.00 0.13 64 1003.0
20260505033353 12 148 0.0 3.2 0.00 0.00 0.13 65 1003.0
20260505032849 12 148 0.0 3.2 0.00 0.00 0.13 64 1003.0
20260505032350 12 161 3.2 3.2 0.00 0.00 0.13 66 1003.0
20260505031849 12 150 3.2 3.2 0.00 0.00 0.13 67 1003.0
20260505031349 11 164 3.2 4.8 0.00 0.00 0.13 71 1003.0
20260505030849 11 128 3.2 3.2 0.00 0.00 0.13 74 1003.0
20260505030349 11 137 3.2 6.4 0.00 0.00 0.13 73 1003.0
20260505025849 11 125 4.8 4.8 0.00 0.00 0.13 73 1003.0
20260505025349 11 117 3.2 6.4 0.00 0.00 0.13 71 1003.0
20260505024852 11 133 1.6 3.2 0.00 0.00 0.13 75 1003.0
20260505024350 12 120 6.4 8.0 0.00 0.00 0.13 72 1003.0
20260505023850 12 124 6.4 8.0 0.00 0.00 0.13 72 1003.0
20260505023349 12 125 4.8 6.4 0.00 0.00 0.13 70 1003.0
20260505022849 12 125 6.4 6.4 0.00 0.00 0.13 72 1003.0
20260505022349 12 128 4.8 6.4 0.00 0.00 0.13 69 1003.0
20260505021853 12 133 3.2 4.8 0.00 0.00 0.13 68 1003.0
20260505021350 13 135 3.2 4.8 0.00 0.00 0.13 66 1003.0
20260505020849 12 121 3.2 6.4 0.00 0.00 0.13 66 1003.0
20260505020349 13 132 4.8 6.4 0.00 0.00 0.13 67 1003.0
20260505015849 13 128 1.6 3.2 0.00 0.00 0.13 65 1003.0
20260505015350 12 121 4.8 6.4 0.00 0.00 0.13 67 1003.0
20260505014849 12 121 3.2 4.8 0.00 0.00 0.13 69 1004.0
20260505014349 13 122 4.8 6.4 0.00 0.00 0.13 67 1004.0
20260505013849 13 128 3.2 3.2 0.00 0.00 0.13 66 1004.0
20260505013352 13 128 3.2 3.2 0.00 0.00 0.13 67 1004.0
20260505012850 13 126 3.2 4.8 0.00 0.00 0.13 68 1004.0
20260505012351 13 130 4.8 6.4 0.00 0.00 0.13 67 1004.0
20260505011850 14 128 1.6 3.2 0.00 0.00 0.13 66 1004.0
20260505011350 14 78 0.0 1.6 0.00 0.00 0.13 65 1004.0
20260505010850 14 0 0.0 0.0 0.00 0.00 0.13 65 1004.0
20260505010350 15 345 1.6 3.2 0.00 0.00 0.13 66 1004.0
20260505005849 15 338 1.6 3.2 0.00 0.00 0.13 62 1004.0
20260505005350 16 139 0.0 0.0 0.00 0.00 0.13 56 1003.0
20260505004851 16 159 1.6 3.2 0.00 0.00 0.13 55 1003.0
20260505004350 17 132 0.0 3.2 0.00 0.00 0.13 52 1003.0
20260505003850 17 161 1.6 3.2 0.00 0.00 0.13 51 1003.0
20260505003350 17 156 1.6 3.2 0.00 0.00 0.13 52 1003.0
20260505002849 17 149 1.6 3.2 0.00 0.00 0.13 53 1003.0
20260505002350 17 156 3.2 3.2 0.00 0.00 0.13 52 1003.0
20260505001850 18 165 1.6 3.2 0.00 0.00 0.13 49 1003.0
20260505001350 18 0 0.0 0.0 0.00 0.00 0.13 49 1003.0
20260505000849 18 176 0.0 1.6 0.00 0.00 0.13 48 1003.0
20260505000351 18 184 0.0 1.6 0.00 0.00 0.13 48 1003.0
20260504235850 18 0 0.0 0.0 0.00 0.00 0.13 47 1003.0
20260504235349 19 0 0.0 0.0 0.00 0.00 0.13 47 1003.0
20260504234850 19 0 0.0 0.0 0.00 0.00 0.13 46 1003.0
20260504234349 19 0 0.0 0.0 0.00 0.00 0.13 46 1003.0
20260504233850 19 191 1.6 4.8 0.00 0.00 0.13 46 1003.0
20260504233350 19 181 0.0 1.6 0.00 0.00 0.13 46 1003.0
20260504232850 19 190 1.6 3.2 0.00 0.00 0.13 45 1003.0
20260504232349 20 180 1.6 4.8 0.00 0.00 0.13 46 1003.0
20260504231850 20 226 1.6 3.2 0.00 0.00 0.13 46 1003.0
20260504231349 20 210 1.6 3.2 0.00 0.00 0.13 46 1003.0
20260504230850 20 208 1.6 4.8 0.00 0.00 0.13 45 1003.0
20260504230349 20 218 3.2 4.8 0.00 0.00 0.13 45 1003.0
20260504225849 21 239 8.0 12.9 0.00 0.00 0.13 44 1003.0
20260504225349 21 230 6.4 9.7 0.00 0.00 0.13 44 1003.0
20260504224850 21 211 3.2 8.0 0.00 0.00 0.13 45 1003.0
20260504224350 21 246 6.4 8.0 0.00 0.00 0.13 45 1003.0
20260504223849 21 229 4.8 9.7 0.00 0.00 0.13 45 1003.0
20260504223350 21 240 4.8 6.4 0.00 0.00 0.13 46 1003.0
20260504222850 21 257 6.4 9.7 0.00 0.00 0.13 46 1003.0
20260504222349 21 254 6.4 8.0 0.00 0.00 0.13 46 1003.0
20260504221850 20 242 8.0 14.5 0.00 0.00 0.13 45 1003.0
20260504221350 21 236 6.4 11.3 0.00 0.00 0.13 45 1003.0
20260504220850 21 234 6.4 9.7 0.00 0.00 0.13 46 1003.0
20260504220350 20 251 9.7 14.5 0.00 0.00 0.13 46 1003.0
20260504215849 21 252 12.9 16.1 0.00 0.00 0.13 45 1003.0
20260504215350 21 233 8.0 9.7 0.00 0.00 0.13 45 1004.0
20260504214850 21 236 8.0 11.3 0.00 0.00 0.13 44 1004.0
20260504214350 21 246 8.0 14.5 0.00 0.00 0.13 46 1004.0
20260504213849 21 248 12.9 14.5 0.00 0.00 0.13 46 1004.0
20260504213349 20 246 11.3 12.9 0.00 0.00 0.13 47 1004.0
20260504212849 21 244 12.9 19.3 0.00 0.00 0.13 45 1004.0
20260504212349 21 252 12.9 16.1 0.00 0.00 0.13 45 1004.0
20260504211850 21 242 11.3 17.7 0.00 0.00 0.13 45 1004.0
20260504211350 20 247 12.9 17.7 0.00 0.00 0.13 46 1004.0
20260504210850 21 235 8.0 11.3 0.00 0.00 0.13 45 1004.0
20260504210350 21 249 12.9 14.5 0.00 0.00 0.13 46 1004.0
20260504205849 21 233 9.7 14.5 0.00 0.00 0.13 47 1004.0
20260504205350 20 237 12.9 16.1 0.00 0.00 0.13 45 1004.0
20260504204849 20 231 11.3 17.7 0.00 0.00 0.13 46 1004.0
20260504204350 20 240 9.7 14.5 0.00 0.00 0.13 48 1004.0
20260504203850 20 252 14.5 20.9 0.00 0.00 0.13 48 1004.0
20260504203350 20 237 12.9 16.1 0.00 0.00 0.13 47 1004.0
20260504202849 20 251 11.3 17.7 0.00 0.00 0.13 47 1004.0
20260504202350 20 234 12.9 16.1 0.00 0.00 0.13 46 1004.0
20260504201850 20 250 16.1 17.7 0.00 0.00 0.13 47 1004.0
20260504201350 20 245 16.1 19.3 0.00 0.00 0.13 47 1004.0
20260504200849 21 211 8.0 12.9 0.00 0.00 0.13 46 1004.0
20260504200350 20 229 9.7 16.1 0.00 0.00 0.13 48 1004.0
20260504195850 20 235 14.5 20.9 0.00 0.00 0.13 47 1004.0
20260504195350 20 232 9.7 12.9 0.00 0.00 0.13 47 1004.0
20260504194849 20 220 8.0 14.5 0.00 0.00 0.13 47 1004.0
20260504194351 20 246 8.0 11.3 0.00 0.00 0.13 49 1004.0
20260504193850 20 240 12.9 17.7 0.00 0.00 0.13 48 1004.0
20260504193349 20 243 12.9 19.3 0.00 0.00 0.13 48 1004.0
20260504192850 20 250 14.5 17.7 0.00 0.00 0.13 47 1004.0
20260504192350 20 253 12.9 22.5 0.00 0.00 0.13 48 1004.0
20260504191850 20 229 6.4 12.9 0.00 0.00 0.13 48 1005.0
20260504191350 20 241 6.4 9.7 0.00 0.00 0.13 50 1005.0
20260504190850 20 223 8.0 11.3 0.00 0.00 0.13 48 1005.0
20260504190350 19 226 8.0 16.1 0.00 0.00 0.13 49 1005.0
20260504185852 19 246 14.5 20.9 0.00 0.00 0.13 48 1005.0
20260504185349 19 242 9.7 12.9 0.00 0.00 0.13 49 1005.0
20260504184850 19 240 14.5 17.7 0.00 0.00 0.13 49 1005.0
20260504184350 19 208 6.4 9.7 0.00 0.00 0.13 50 1005.0
20260504183849 18 245 11.3 17.7 0.00 0.00 0.13 50 1005.0
20260504183351 18 255 12.9 14.5 0.00 0.00 0.13 49 1005.0
20260504182849 18 237 9.7 12.9 0.00 0.00 0.13 50 1005.0
20260504182353 18 216 6.4 16.1 0.00 0.00 0.13 51 1005.0
20260504181850 18 234 9.7 14.5 0.00 0.00 0.13 50 1005.0
20260504181352 18 244 9.7 14.5 0.00 0.00 0.13 48 1005.0
20260504180849 18 229 8.0 14.5 0.00 0.00 0.13 51 1005.0
20260504180350 18 243 16.1 20.9 0.00 0.00 0.13 50 1005.0
20260504175850 18 216 6.4 11.3 0.00 0.00 0.13 49 1005.0
20260504175349 18 236 11.3 14.5 0.00 0.00 0.13 50 1005.0
20260504174850 18 234 9.7 12.9 0.00 0.00 0.13 51 1005.0
20260504174350 17 238 11.3 17.7 0.00 0.00 0.13 50 1005.0
20260504173849 18 239 11.3 14.5 0.00 0.00 0.13 50 1005.0
20260504173350 18 205 6.4 9.7 0.00 0.00 0.13 50 1005.0
20260504172850 17 234 6.4 9.7 0.00 0.00 0.13 51 1005.0
20260504172349 17 214 6.4 9.7 0.00 0.00 0.13 51 1006.0
20260504171850 17 255 11.3 14.5 0.00 0.00 0.13 53 1006.0
20260504171350 17 239 12.9 14.5 0.00 0.00 0.13 51 1006.0
20260504170851 17 258 14.5 20.9 0.00 0.00 0.13 51 1006.0
20260504170349 17 261 12.9 17.7 0.00 0.00 0.13 51 1005.0
20260504160350 16 237 12.9 17.7 0.00 0.00 0.13 52 1006.0
20260504150851 15 233 12.9 20.9 0.00 0.00 0.13 54 1006.0
20260504150349 15 232 9.7 14.5 0.00 0.00 0.13 55 1006.0
20260504140849 13 233 9.7 14.5 0.00 0.00 0.13 58 1006.0
20260504140349 13 214 6.4 9.7 0.00 0.00 0.13 57 1006.0
20260504130352 10 205 4.8 6.4 0.00 0.00 0.13 65 1007.0